STARLINK-5777 (56027 NORAD) Tracking and Keplerian Element Data

This shows tracking and keplerian element data for the satellite.

Feedback or suggestion? Click here.




ElementValue
Catalog56027
NameSTARLINK-5777
Epoch Orbit718
Epoch Day127.08334491
Epoch Year2023
RAAN292.694
Inclination42.9997
Eccentricity0.0001623
Argument of Perigee275.9442
Mean Anonmoly57.2121
Mean Motion15.54823917
Decay Rate-0.00967574
L11 56027U 23042AT 23127.08334491 -.00967574 00000+0 -15430-1 0 9991
L22 56027 42.9997 292.6940 0001623 275.9442 57.2121 15.54823917 7188



Live tracking and technical data element details for STARLINK-5777 (NORAD 56027). STARLINK-5777 can be tracked NOW for your location showing map with azimuth and elevation plus other details from your city location.







IsCatalogInMostPopularTable: catalog: 56027, numindb: 7
Update: records affected: 1



GetName: 56027 STARLINK-5777

Hit Count: updated at: Sat, 03 Jun 2023 17:14:42 GMT